Weather observations for the past three days for
Pocatello, Pocatello Regional Airport
Imperial (Metric)
Date Time (mdt) Wind (mph) Vis. (mi.) Weather Sky Cond. Temperature (ºF) Relative Humidity Wind Chill (°F) Heat Index (°F) Pressure Precipitation (in)
Air Dwpt 6 hour altimeter (in) sea level (mb) 1 hr 3 hr 6 hr
Max. Min.
06 09:53 Vrbl 3 10.00 Fair CLR 63 43 48% 30.03 1012.8
06 07:53 NE 3 10.00 Fair CLR 53.1 37 55% 30.03 1012.8
06 06:53 E 6 10.00 Fair CLR 50 37.9 63% 48 30.02 1012.2
06 05:53 E 5 10.00 Fair CLR 50 39.9 64 48.9 68% 49 30.01 1011.8
06 04:53 S 5 10.00 Fair CLR 54 39.9 59% 30 1011.4
06 03:53 S 8 10.00 Fair CLR 55.9 39.9 55% 29.99 1011.0
06 02:53 S 6 10.00 Fair CLR 55 39.9 57% 29.98 1011.1
06 01:53 S 6 10.00 Fair CLR 55 39 55% 29.96 1010.7
06 00:53 S 6 10.00 Fair CLR 59 41 51% 29.95 1010.2
05 23:53 SW 15 10.00 Fair CLR 63 30.9 84 55.9 30% 29.94 1010.1
05 22:53 NE 6 10.00 Fair CLR 61 32 34% 29.93 1010.3
05 21:53 E 8 10.00 Fair CLR 66.9 28.9 24% 29.95 1010.4
05 20:53 S 8 8.00 Fair CLR 66 30 26% 29.95 1011.0
05 19:53 S 12 10.00 Fair CLR 77 26.1 15% 76 29.95 1010.1
05 18:53 SW 16 10.00 Fair CLR 82.9 24.1 11% 80 29.95 1010.3
05 17:53 NW 8 G 17 10.00 Fair CLR 82.9 33.1 84 64 17% 80 29.95 1010.1
05 16:53 NW 8 G 22 10.00 Fair CLR 82.9 37 19% 80 29.97 1010.6
05 15:53 NW 9 10.00 Fair CLR 81 41 24% 79 29.98 1011.1
05 14:53 Vrbl 6 10.00 Fair CLR 78.1 44.1 30% 78 30 1011.8
05 11:53 Vrbl 3 10.00 Fair CLR 64.9 43 64.9 48 45% 30.09 1015.7
05 10:53 Calm 10.00 Fair CLR 61 45 56% 30.1 1016.2
05 09:53 SW 7 10.00 Fair CLR 59 44.1 58% 30.1 1016.0
05 07:53 Calm 10.00 Fair CLR 53.1 41 64% 30.08 1015.2
05 06:53 S 9 10.00 Fair CLR 48.9 41 74% 45 30.07 1014.7
05 05:53 SW 12 10.00 Fair CLR 51.1 42.1 57 51.1 71% 30.05 1013.7
05 04:53 SW 10 10.00 Fair CLR 51.1 42.1 71% 30.04 1013.2
05 03:53 SW 15 10.00 Fair CLR 53.1 42.1 66% 30.02 1012.8
05 02:53 SW 14 10.00 Fair CLR 55 42.1 62% 30.01 1012.2
05 01:53 SW 17 10.00 Fair CLR 55.9 42.1 60% 29.99 1011.6
05 00:53 SW 17 10.00 Fair CLR 57 43 60% 29.95 1010.7
04 23:53 SW 18 G 26 10.00 Fair CLR 57 44.1 79 57 62% 29.94 1010.5
04 22:53 SW 20 10.00 Fair CLR 59 45 60% 29.93 1010.1
04 21:53 SW 21 10.00 Fair and Breezy CLR 63 44.1 50% 29.9 1009.3
04 20:53 E 6 10.00 Fair CLR 68 39 35% 29.87 1007.9
04 19:53 NE 10 10.00 Fair CLR 71.1 39.9 32% 29.86 1007.9
04 18:53 N 6 10.00 Fair CLR 77 39 26% 77 29.88 1008.2
04 17:53 N 6 10.00 Fair CLR 79 39 79 63 24% 78 29.89 1008.5
04 16:53 NW 10 G 16 10.00 Fair CLR 78.1 41 27% 78 29.9 1008.8
04 15:53 NW 10 10.00 Fair CLR 77 42.1 29% 78 29.91 1009.3
04 14:53 NW 9 10.00 Fair CLR 75 44.1 33% 77 29.93 1009.4
04 13:53 NW 9 10.00 Fair CLR 71.1 44.1 38% 29.95 1009.3
04 12:53 Vrbl 5 10.00 Fair CLR 68 44.1 42% 29.97 1011.4
04 11:53 Vrbl 3 10.00 Fair CLR 63 44.1 63 46 50% 30 1012.6
04 10:53 W 7 10.00 Fair CLR 60.1 43 53% 30 1012.4
04 09:53 SW 7 10.00 Fair CLR 55.9 43 62% 30.01 1012.8
04 08:53 W 16 10.00 Fair CLR 53.1 42.1 66% 30 1013.0
04 07:53 SW 17 10.00 Fair CLR 48 41 77% 42 29.98 1011.9
04 06:53 SW 15 G 24 10.00 Fair CLR 46 39.9 79% 40 29.95 1010.9
04 05:53 SW 20 10.00 Fair CLR 48 39.9 73 46.9 74% 42 29.94 1010.3
04 04:53 SW 22 G 29 10.00 Fair and Breezy CLR 48 41 77% 41 29.92 1009.6
04 03:53 SW 28 G 36 10.00 Fair and Windy CLR 48 42.1 80% 40 29.88 1008.2
04 02:53 SW 30 G 45 10.00 Fair and Windy CLR 54 44.1 69% 29.82 1005.8
04 01:53 S 17 G 28 10.00 Fair CLR 71.1 26.1 19% 29.73 1001.7
04 00:53 SW 6 10.00 Fair CLR 57 26.1 30% 29.74 1002.9
03 23:53 SW 7 10.00 Fair CLR 59 26.1 78.1 59 28% 29.76 1003.5
03 22:53 E 6 10.00 Fair CLR 63 26.1 25% 29.79 1004.6
03 21:53 S 12 10.00 Fair CLR 64.9 26.1 23% 29.81 1005.2
03 20:53 S 9 10.00 Fair CLR 64 28 26% 29.81 1005.6
03 19:53 S 12 10.00 Fair CLR 73.9 24.1 15% 29.82 1005.7
03 18:53 SW 12 10.00 Fair CLR 75.9 25 15% 76 29.84 1006.2
03 17:53 N 7 10.00 Fair CLR 78.1 34 78.1 69.1 20% 77 29.84 1006.0
03 16:53 N 7 10.00 Fair CLR 75.9 34 22% 77 29.86 1006.9
03 15:53 Vrbl 6 10.00 Fair CLR 75.9 33.1 21% 76 29.88 1007.6
03 14:53 N 8 10.00 Fair CLR 75 32 21% 76 29.91 1008.9
03 13:53 W 8 G 20 10.00 Fair CLR 73 34 24% 29.94 1009.7
03 12:53 W 9 10.00 Fair CLR 73 32 22% 29.97 1010.9
03 11:53 SW 10 10.00 A Few Clouds FEW120 70 32 71.1 52 25% 29.99 1011.9
03 10:53 Calm 10.00 Fair CLR 66 36 33% 30 1012.0
Date Time (mdt) Wind (mph) Vis. (mi.) Weather Sky Cond. Air Dwpt Max. Min. Relative Humidity Wind Chill (°F) Heat Index (°F) altimeter (in) sea level (mb) 1 hr 3 hr 6 hr
6 hour
Temperature (ºF) Pressure Precipitation (in)